Location: Byhalia Creek
(34.8270°N, 89.8040°W)
Time: 19:25:59
(UTC+00:00)

Meteor 2-8 Rocket - Pass Details

Date: 22 April 2026
Orbit: 936 x 958 km, 82.5° (Epoch: 21 May)

Event Time Altitude Azimuth Distance (km) Brightness Sun altitude
Exits shadow 02:07:38 - 178° (S) 3,072 6.8 -18.1°
Reaches altitude 10° 02:08:45 10° 177° (S) 2,649 6.5 -18.3°
Maximum altitude 02:14:46 72° 94° (E) 985 4.3 -19.3°
Drops below altitude 10° 02:20:48 10° 11° (N) 2,654 7.0 -20.4°
Sets 02:23:17 0° 10° (N) 3,601 7.8 -20.8°
